Location: Newark
(55.7083°N, 13.1992°E)
Time: 22:57:36
(UTC+00:00)

Transit 4A - Visible Passes

Search period start: 18 February 2020 00:00
Search period end: 28 February 2020 00:00
Orbit: 872 x 973 km, 66.8° (Epoch: 18 February)

Date Brightness Start Highest point End Pass type
(mag) Time Alt. Az. Time Alt. Az. Time Alt. Az.
18 Feb 9.8 01:10:34 23° NE 01:10:34 23° NE 01:12:35 10° NE visible
18 Feb 8.6 02:54:04 40° NNW 02:54:04 40° NNW 02:59:04 10° NE visible
18 Feb 9.1 04:37:34 15° NW 04:41:21 28° N 04:46:20 10° ENE visible
19 Feb 9.6 01:19:33 26° NE 01:19:33 26° NE 01:21:57 10° NE visible
19 Feb 8.7 03:03:03 35° NNW 03:03:09 35° NNW 03:08:30 10° NE visible
19 Feb 9.2 04:46:33 12° NW 04:51:02 28° N 04:56:03 10° ENE visible
20 Feb 9.5 01:28:32 29° NE 01:28:32 29° NE 01:31:18 10° NE visible
20 Feb 8.9 03:12:02 31° NNW 03:12:47 32° NNW 03:17:59 10° NE visible
20 Feb 9.2 04:55:39 10° NW 05:00:44 29° N 05:05:48 10° ENE visible
20 Feb 10.5 23:54:00 11° NE 23:54:00 11° NE 23:54:09 10° NE visible
21 Feb 9.3 01:37:30 31° NNE 01:37:30 31° NNE 01:40:40 10° NE visible
21 Feb 9.0 03:21:00 26° NW 03:22:27 29° N 03:27:32 10° NE visible
21 Feb 9.1 05:05:11 10° NW 05:10:23 32° NNE 05:15:35 10° ENE visible
22 Feb 10.4 00:02:57 13° NE 00:02:57 13° NE 00:03:33 10° NE visible
22 Feb 9.2 01:46:27 33° NNE 01:46:27 33° NNE 01:50:02 10° NE visible
22 Feb 9.2 03:29:57 22° NW 03:32:08 28° N 03:37:08 10° NE visible
22 Feb 9.0 05:14:40 10° NW 05:20:01 35° NNE 05:25:22 10° E visible
23 Feb 10.2 00:11:54 16° NE 00:11:54 16° NE 00:12:57 10° NE visible
23 Feb 9.1 01:55:23 34° N 01:55:23 34° N 01:59:27 10° NE visible
23 Feb 9.3 03:38:54 19° NW 03:41:49 28° N 03:46:48 10° ENE visible
23 Feb 8.8 05:24:07 10° NW 05:29:37 40° NNE 05:35:08 10° E visible
24 Feb 10.1 00:20:50 18° NE 00:20:50 18° NE 00:22:18 10° NE visible
24 Feb 9.1 02:04:19 33° N 02:04:19 33° N 02:08:53 10° NE visible
24 Feb 9.3 03:47:49 16° NW 03:51:30 28° N 03:56:32 10° ENE visible
25 Feb 9.9 00:29:45 21° NE 00:29:45 21° NE 00:31:39 10° NE visible
25 Feb 9.1 02:13:15 31° NNW 02:13:15 31° NNW 02:18:23 10° NE visible
25 Feb 9.2 03:56:45 13° NW 04:01:11 30° NNE 04:06:19 10° ENE visible
26 Feb 9.8 00:38:40 24° NNE 00:38:40 24° NNE 00:41:01 10° NE visible
26 Feb 9.2 02:22:10 28° NNW 02:22:55 29° N 02:27:58 10° NE visible
26 Feb 9.2 04:05:39 10° NW 04:10:51 33° NNE 04:16:06 10° E visible
27 Feb 9.6 00:47:34 26° NNE 00:47:34 26° NNE 00:50:24 10° NE visible
27 Feb 9.3 02:31:04 25° NNW 02:32:36 28° N 02:37:36 10° NE visible
27 Feb 9.0 04:15:03 10° NW 04:20:27 37° NNE 04:25:53 10° E visible
27 Feb 10.4 23:12:58 12° NE 23:12:58 12° NE 23:13:17 10° NE visible
